CW4541 Weather Reports


time (UTC)temp
C
wind
direction
speed
KPH
gust
KPH
rain 1hr
cm
rain 24hr
cm
rain mn
cm
humidity
%
barometer
mb
20260906230606 23 15 9.7 22.5 0.00 0.00 0.00 19 1018.2
20260906230112 23 15 11.3 20.9 0.00 0.00 0.00 18 1018.1
20260906220606 27 190 3.2 20.9 0.00 0.00 0.00 15 1017.8
20260906220111 28 218 1.6 20.9 0.00 0.00 0.00 15 1017.9
20260906210606 28 244 3.2 12.9 0.00 0.00 0.00 16 1018.6
20260906210112 27 176 1.6 11.3 0.00 0.00 0.00 16 1018.6
20260906200606 27 180 3.2 12.9 0.00 0.00 0.00 15 1019.2
20260906200113 28 191 3.2 12.9 0.00 0.00 0.00 13 1019.3
20260906190606 27 266 3.2 16.1 0.00 0.00 0.00 15 1019.9
20260906180606 25 205 1.6 12.9 0.00 0.00 0.00 18 1021.0
20260906180111 25 154 0.0 9.7 0.00 0.00 0.00 18 1021.1
20260906170111 24 253 1.6 9.7 0.00 0.00 0.00 18 1021.8
20260906160606 21 20 1.6 8.0 0.00 0.00 0.00 16 1022.2
20260906160111 21 12 1.6 8.0 0.00 0.00 0.00 17 1022.2
20260906150606 18 13 1.6 8.0 0.00 0.00 0.00 20 1022.1
20260906150111 17 12 0.0 8.0 0.00 0.00 0.00 22 1022.1
20260906140606 16 197 0.0 1.6 0.00 0.00 0.00 27 1022.1
20260906140112 15 197 0.0 1.6 0.00 0.00 0.00 27 1022.1
20260906130605 13 219 0.0 0.0 0.00 0.00 0.00 29 1022.1
20260906130111 13 219 0.0 0.0 0.00 0.00 0.00 28 1022.2
20260906120605 12 107 0.0 0.0 0.00 0.00 0.00 29 1021.6
20260906120111 12 109 0.0 0.0 0.00 0.00 0.00 28 1021.6
20260906110605 11 123 0.0 0.0 0.00 0.00 0.00 31 1021.4
20260906110111 11 118 0.0 0.0 0.00 0.00 0.00 31 1021.4
20260906100606 12 102 0.0 0.0 0.00 0.00 0.00 30 1021.0
20260906100111 12 89 0.0 0.0 0.00 0.00 0.00 30 1021.0
20260906090605 13 92 0.0 0.0 0.00 0.00 0.00 28 1021.1
20260906090110 13 87 0.0 0.0 0.00 0.00 0.00 28 1021.1
20260906080605 13 101 0.0 0.0 0.00 0.00 0.00 23 1021.6
20260906080111 13 91 0.0 0.0 0.00 0.00 0.00 23 1021.6
20260906070605 13 97 0.0 0.0 0.00 0.00 0.00 21 1021.8
20260906070110 13 94 0.0 0.0 0.00 0.00 0.00 21 1021.8
20260906060605 13 99 0.0 0.0 0.00 0.00 0.00 24 1022.1
20260906060112 13 104 0.0 0.0 0.00 0.00 0.00 24 1022.1
20260906050606 13 122 0.0 0.0 0.00 0.00 0.00 29 1022.0
20260906050112 13 110 0.0 0.0 0.00 0.00 0.00 28 1021.9
20260906040607 15 21 0.0 1.6 0.00 0.00 0.00 26 1022.0
20260906040112 15 21 0.0 0.0 0.00 0.00 0.00 26 1021.9
20260906030606 16 19 0.0 1.6 0.00 0.00 0.00 20 1021.3
20260906030113 16 20 0.0 1.6 0.00 0.00 0.00 20 1021.1
20260906020607 19 17 0.0 0.0 0.00 0.00 0.00 16 1020.6
20260906020112 20 16 0.0 1.6 0.00 0.00 0.00 15 1020.6
20260906010606 24 13 0.0 8.0 0.00 0.00 0.00 10 1020.6
20260906000606 26 198 1.6 9.7 0.00 0.00 0.00 9 1020.4